[[{"header":{"parameterUnit":"m.s-1","parameterCategory":1,"la1":30.2991,"la2":30.254,"lo1":-89.0895,"lo2":-89.0444,"dy":0.0017,"dx":0.0017,"nx":28,"ny":28,"refTime":"2025-09-14T09:00:00:Z","depth":0,"parameterNumber":2,"parameterNumberName":"U-component_of_WINDS"},"data":[0,0,0,0,0,0,0,0,0,0,0,0,0,0,0,0,0,0,0,0,0,0,0,0,0,0,0,0,0,0,0,0,0,0,0,0,0,0,0,0,0,0,0,0,0,0,0,0,0,0,0,0,0,0,0,0,0,0,0.4704,0.4702,0,0.4594,0.4593,0.4592,0.4529,0.4529,0.4529,0.4528,0.4414,0.4411,0.4408,0,0,0,0,0,0,0,0,0,0,0,0,0,0.4856,0.4853,0.4704,0.4702,0.4701,0.4595,0.4593,0.4592,0.4529,0.4529,0.4529,0.4528,0.4415,0.4411,0.4408,0,0,0,0,0,0,0,0,0,0,0,0,0,0.4772,0.4852,0.4704,0.4657,0.4652,0.4595,0.4593,0.4591,0.4529,0.4529,0.4528,0.4528,0.4416,0.4412,0.4408,0.4388,0,0,0.4395,0.4393,0,0,0,0,0,0,0,0,0.4777,0.4767,0.4665,0.466,0.4654,0.4575,0.4605,0.4523,0.4529,0.4576,0.4528,0.4528,0.4468,0.4459,0.4439,0.4383,0.4378,0.4394,0.4392,0.439,0.4389,0,0,0,0,0,0,0,0.4783,0.4771,0.466,0.4664,0.4657,0.4641,0.4628,0.4589,0.4525,0.4572,0.4567,0.4555,0.4464,0.4443,0.4436,0.4376,0.4394,0.439,0.4388,0.4386,0.4297,0.4297,0,0,0,0,0,0,0.4797,0.4776,0.4664,0.4657,0.4716,0.4638,0.4624,0.4601,0.4525,0.4513,0.4555,0.4552,0.4451,0.4441,0.4432,0.4403,0.439,0.4386,0.4383,0.4296,0.4297,0.4297,0,0,0,0,0,0,0.48,0.4787,0.4668,0.4715,0.4699,0.4636,0.461,0.4599,0.4578,0.4513,0.4501,0.4546,0.445,0.4438,0.4399,0.4398,0.4384,0.438,0.4296,0.4296,0.4297,0.4346,0,0,0,0,0,0,0.4805,0.4789,0.4781,0.4716,0.4697,0.4639,0.461,0.4597,0.4571,0.4566,0.4501,0.4489,0.4449,0.4406,0.4395,0.4392,0.4377,0.4296,0.4296,0.4297,0.4344,0.4348,0.4351,0,0,0,0,0,0.481,0.4799,0.4781,0.4768,0.4686,0.4639,0.4628,0.4582,0.4571,0.4563,0.4521,0.4491,0.44,0.4403,0.439,0.4385,0.4296,0.4296,0.4297,0.4343,0.4347,0.4351,0,0,0,0,0,0,0.4866,0.479,0.4769,0.4737,0.4695,0.4628,0.4616,0.4589,0.4548,0.4545,0.449,0.4476,0.4442,0.441,0.4414,0.4362,0.4345,0.4343,0.4384,0.4388,0.4391,0.4399,0.4373,0,0,0,0,0,0.4875,0.4843,0.4778,0.4756,0.4736,0.468,0.4657,0.4626,0.458,0.4562,0.4517,0.4472,0.4433,0.4409,0.437,0.4339,0.4323,0.433,0.4333,0.4337,0.4335,0.4315,0.4317,0.4298,0.4298,0.4298,0,0,0.4892,0.4846,0.483,0.4766,0.4729,0.4697,0.4665,0.4633,0.4608,0.4556,0.4517,0.4483,0.4429,0.4395,0.4377,0.4367,0.4337,0.4337,0.434,0.4337,0.4316,0.4318,0.4319,0.4298,0.4298,0.4298,0,0,0.4906,0.4869,0.4846,0.4811,0.4756,0.4719,0.4714,0.4651,0.4627,0.4587,0.4547,0.4516,0.4451,0.4414,0.4387,0.4388,0.4359,0.4376,0.4394,0.4375,0.4377,0.4378,0.4377,0.4377,0.4375,0.4375,0.4375,0,0.4934,0.4885,0.4837,0.4807,0.4779,0.4732,0.4708,0.4675,0.4611,0.4592,0.4582,0.4498,0.4459,0.4415,0.4415,0.4395,0.4386,0.4383,0.4381,0.4381,0.4381,0.438,0.438,0.4378,0.4377,0.4377,0.4377,0,0.4921,0.4887,0.4875,0.4814,0.4786,0.4758,0.4706,0.4682,0.4654,0.4617,0.4577,0.4528,0.4478,0.4465,0.4436,0.4416,0.4411,0.4392,0.4373,0.4387,0.4384,0.4383,0.4381,0.438,0.438,0.4379,0,0,0.4967,0.4881,0.4877,0.4849,0.4785,0.4758,0.4728,0.4679,0.466,0.4617,0.4589,0.4535,0.4516,0.4486,0.4452,0.4436,0.4438,0.4418,0.4416,0.4423,0.4411,0.4426,0.4426,0.4419,0.4419,0.4419,0.4415,0,0.4971,0.4916,0.4873,0.4834,0.4801,0.4756,0.473,0.4687,0.4653,0.4619,0.458,0.4542,0.4521,0.4502,0.4484,0.4442,0.4435,0.4442,0.4392,0.439,0.4406,0.4425,0.444,0.4439,0.4414,0.4414,0.4414,0,0.4969,0.4928,0.4886,0.4826,0.4811,0.4788,0.4739,0.4709,0.4659,0.4635,0.4601,0.4566,0.4531,0.4517,0.4467,0.4473,0.445,0.4426,0.4424,0.4417,0.4402,0.4417,0.4438,0.4438,0.4412,0.4412,0.4412,0,0.5005,0.494,0.4906,0.4884,0.4812,0.4797,0.4767,0.4717,0.4691,0.4648,0.463,0.4584,0.4558,0.4523,0.4476,0.447,0.4431,0.4413,0.4408,0.441,0.4401,0.4402,0.4418,0.4389,0.4389,0.4389,0.4389,0,0.5014,0.499,0.4922,0.4901,0.4872,0.4822,0.4794,0.476,0.4716,0.4686,0.4644,0.4618,0.4558,0.4524,0.4487,0.4451,0.444,0.4418,0.4408,0.4421,0.4424,0.4404,0.4403,0.4388,0.4388,0.4388,0.4388,0,0.505,0.5003,0.4963,0.4899,0.4882,0.4864,0.4808,0.4786,0.4749,0.4712,0.4701,0.4642,0.4599,0.455,0.449,0.4466,0.4432,0.4418,0.4449,0.4443,0.4441,0.4441,0.4444,0.4441,0.4415,0.4415,0.4416,0,0.5058,0.5038,0.4973,0.495,0.4921,0.4886,0.4859,0.4809,0.4782,0.4724,0.4708,0.4662,0.4623,0.4556,0.4508,0.4462,0.4446,0.445,0.4439,0.4452,0.4444,0.4446,0.4443,0.4453,0.4454,0.4454,0.4454,0,0.5077,0.5055,0.5018,0.4973,0.4942,0.4903,0.4863,0.4847,0.4789,0.476,0.4717,0.4686,0.4626,0.4581,0.4529,0.4495,0.4465,0.4459,0.4455,0.4467,0.4485,0.4474,0.4456,0.4458,0.4458,0.4458,0.4457,0.4457,0.5098,0.5078,0.5029,0.4989,0.4954,0.4917,0.4892,0.4853,0.4816,0.4763,0.4736,0.4692,0.4642,0.4569,0.4537,0.4502,0.4491,0.4486,0.4484,0.4484,0.4487,0.4492,0.4492,0.4492,0.4492,0.4491,0.4491,0,0.5114,0.508,0.5044,0.499,0.4958,0.4933,0.4887,0.4862,0.4824,0.4781,0.4743,0.4692,0.4648,0.4596,0.4548,0.4529,0.4514,0.4518,0.4518,0.4511,0.45,0.4507,0.4532,0.4532,0.4532,0.4532,0.4532,0.4532,0.5119,0.5084,0.5056,0.5002,0.4968,0.4926,0.4902,0.4867,0.4832,0.4778,0.4741,0.4708,0.466,0.4609,0.4566,0.4552,0.4536,0.4544,0.4526,0.4516,0.4512,0.4509,0.4516,0.4541,0.4541,0.454,0.454,0.454]},{"header":{"parameterUnit":"m.s-1","parameterCategory":1,"la1":30.2991,"la2":30.254,"lo1":-89.0895,"lo2":-89.0444,"dy":0.0017,"dx":0.0017,"nx":28,"ny":28,"refTime":"2025-09-14T09:00:00:Z","depth":0,"parameterNumber":3,"parameterNumberName":"V-component_of_WINDS"},"data":[0,0,0,0,0,0,0,0,0,0,0,0,0,0,0,0,0,0,0,0,0,0,0,0,0,0,0,0,0,0,0,0,0,0,0,0,0,0,0,0,0,0,0,0,0,0,0,0,0,0,0,0,0,0,0,0,0,0,-0.2398,-0.2397,0,-0.2333,-0.2333,-0.2332,-0.2262,-0.2261,-0.226,-0.2259,-0.2194,-0.2194,-0.2193,0,0,0,0,0,0,0,0,0,0,0,0,0,-0.2463,-0.2463,-0.2398,-0.2397,-0.2396,-0.2333,-0.2333,-0.2332,-0.2262,-0.2261,-0.2259,-0.2258,-0.2195,-0.2194,-0.2193,0,0,0,0,0,0,0,0,0,0,0,0,0,-0.2421,-0.2462,-0.2398,-0.2354,-0.2349,-0.2334,-0.2333,-0.2331,-0.2262,-0.2261,-0.2259,-0.2258,-0.2195,-0.2194,-0.2193,-0.2216,0,0,-0.2189,-0.2189,0,0,0,0,0,0,0,0,-0.2423,-0.2418,-0.2361,-0.2357,-0.2352,-0.2304,-0.2332,-0.2293,-0.2263,-0.2295,-0.2259,-0.2257,-0.2232,-0.2228,-0.2219,-0.2213,-0.221,-0.2189,-0.2188,-0.2188,-0.2187,0,0,0,0,0,0,0,-0.2426,-0.2421,-0.2372,-0.236,-0.2355,-0.2338,-0.233,-0.2324,-0.2273,-0.2292,-0.2287,-0.228,-0.2229,-0.222,-0.2217,-0.2209,-0.2189,-0.2188,-0.2187,-0.2187,-0.2221,-0.2223,0,0,0,0,0,0,-0.2436,-0.2424,-0.2374,-0.237,-0.2384,-0.2338,-0.233,-0.2321,-0.2273,-0.2264,-0.2282,-0.2277,-0.2223,-0.2219,-0.2215,-0.224,-0.2188,-0.2187,-0.2186,-0.222,-0.2222,-0.2223,0,0,0,0,0,0,-0.2437,-0.2432,-0.2377,-0.2396,-0.2387,-0.2339,-0.233,-0.232,-0.2311,-0.2265,-0.2256,-0.2282,-0.2222,-0.2216,-0.2216,-0.2237,-0.2186,-0.2185,-0.2218,-0.222,-0.2222,-0.2291,0,0,0,0,0,0,-0.2439,-0.2433,-0.244,-0.2396,-0.2387,-0.2379,-0.2331,-0.232,-0.2309,-0.2303,-0.2263,-0.2254,-0.222,-0.2219,-0.2215,-0.2234,-0.2184,-0.2216,-0.2219,-0.2222,-0.2287,-0.2296,-0.2303,0,0,0,0,0,-0.2442,-0.2462,-0.2441,-0.2435,-0.2395,-0.2381,-0.2375,-0.2335,-0.2311,-0.2319,-0.229,-0.2256,-0.2235,-0.2219,-0.2215,-0.2234,-0.2214,-0.2218,-0.2221,-0.2283,-0.2294,-0.2303,0,0,0,0,0,0,-0.2509,-0.2455,-0.2431,-0.2437,-0.2414,-0.2369,-0.2377,-0.2347,-0.233,-0.2325,-0.2276,-0.2268,-0.2274,-0.2254,-0.2237,-0.2255,-0.222,-0.2223,-0.2268,-0.2278,-0.2286,-0.2291,-0.2183,0,0,0,0,0,-0.2525,-0.2517,-0.247,-0.2481,-0.247,-0.2426,-0.2418,-0.2389,-0.2363,-0.2353,-0.2324,-0.23,-0.2289,-0.2282,-0.2269,-0.2283,-0.2275,-0.2295,-0.2303,-0.231,-0.2313,-0.2322,-0.2331,-0.2235,-0.2235,-0.2235,0,0,-0.2557,-0.2527,-0.2525,-0.2493,-0.2472,-0.2466,-0.2418,-0.2413,-0.2409,-0.2353,-0.2351,-0.2329,-0.23,-0.2309,-0.2311,-0.2292,-0.2338,-0.2314,-0.232,-0.232,-0.2326,-0.2336,-0.2344,-0.2238,-0.2237,-0.2237,0,0,-0.2613,-0.2588,-0.2595,-0.2575,-0.2543,-0.2514,-0.2516,-0.2475,-0.2459,-0.2457,-0.2415,-0.2409,-0.239,-0.2372,-0.236,-0.2412,-0.2381,-0.2409,-0.2451,-0.246,-0.2468,-0.2474,-0.2495,-0.2502,-0.2412,-0.2412,-0.2412,0,-0.2657,-0.2646,-0.2602,-0.2601,-0.259,-0.2538,-0.2546,-0.2528,-0.2494,-0.2488,-0.2467,-0.2444,-0.242,-0.2425,-0.2438,-0.2429,-0.2431,-0.2413,-0.247,-0.2476,-0.2482,-0.25,-0.2508,-0.2416,-0.2416,-0.2415,-0.2415,0,-0.2703,-0.2696,-0.2706,-0.2674,-0.2664,-0.2667,-0.2625,-0.262,-0.2592,-0.2566,-0.2566,-0.2537,-0.2517,-0.2516,-0.2489,-0.2518,-0.2507,-0.2479,-0.2443,-0.2495,-0.2512,-0.2519,-0.2421,-0.242,-0.2419,-0.2418,0,0,-0.2799,-0.2745,-0.2749,-0.2735,-0.2697,-0.2692,-0.2694,-0.2675,-0.2672,-0.2651,-0.2652,-0.2638,-0.2613,-0.2599,-0.257,-0.2578,-0.2623,-0.2549,-0.2548,-0.2565,-0.2655,-0.2678,-0.2687,-0.2602,-0.2604,-0.2604,-0.2658,0,-0.2849,-0.2848,-0.281,-0.2821,-0.2815,-0.2768,-0.2769,-0.2747,-0.2723,-0.2716,-0.2689,-0.2681,-0.2647,-0.2639,-0.2644,-0.2617,-0.2641,-0.2612,-0.2605,-0.2605,-0.2615,-0.2695,-0.2718,-0.277,-0.2664,-0.2665,-0.2666,0,-0.2907,-0.289,-0.2901,-0.2865,-0.2861,-0.2863,-0.2844,-0.2837,-0.2812,-0.2794,-0.278,-0.2747,-0.2748,-0.2714,-0.2715,-0.2696,-0.2691,-0.2678,-0.2679,-0.2677,-0.264,-0.2697,-0.2786,-0.2794,-0.2676,-0.2675,-0.2674,0,-0.2979,-0.2958,-0.2962,-0.2951,-0.2909,-0.2912,-0.2895,-0.2868,-0.286,-0.2844,-0.2838,-0.2822,-0.2814,-0.2803,-0.2767,-0.2745,-0.2774,-0.2736,-0.276,-0.2762,-0.2769,-0.2769,-0.2859,-0.2764,-0.2764,-0.2764,-0.2763,0,-0.304,-0.3048,-0.2994,-0.2996,-0.3005,-0.2962,-0.2972,-0.295,-0.2927,-0.2926,-0.2884,-0.2883,-0.2836,-0.2831,-0.2803,-0.2809,-0.2805,-0.2792,-0.2785,-0.2797,-0.2799,-0.2793,-0.2789,-0.2766,-0.2765,-0.2765,-0.2764,0,-0.3121,-0.3084,-0.3086,-0.3046,-0.3036,-0.3045,-0.3012,-0.3013,-0.2987,-0.2986,-0.2983,-0.2942,-0.2934,-0.2898,-0.2881,-0.2862,-0.2879,-0.2863,-0.2888,-0.2883,-0.2911,-0.2909,-0.3001,-0.3012,-0.2909,-0.291,-0.2911,0,-0.3163,-0.3168,-0.313,-0.3126,-0.311,-0.3104,-0.3096,-0.3054,-0.3048,-0.3021,-0.3026,-0.3015,-0.3004,-0.2993,-0.2963,-0.2951,-0.2935,-0.2969,-0.2933,-0.2946,-0.2938,-0.2939,-0.294,-0.2977,-0.2978,-0.2979,-0.298,0,-0.3241,-0.3224,-0.3213,-0.3198,-0.3189,-0.3175,-0.3158,-0.3157,-0.3111,-0.3106,-0.3098,-0.3089,-0.3073,-0.3063,-0.3046,-0.3029,-0.2998,-0.2991,-0.2997,-0.3009,-0.3024,-0.3018,-0.291,-0.2989,-0.2988,-0.2988,-0.2987,-0.2987,-0.3305,-0.3309,-0.3283,-0.3274,-0.3257,-0.3242,-0.3243,-0.3217,-0.3209,-0.3192,-0.3168,-0.3164,-0.314,-0.3114,-0.31,-0.3096,-0.3078,-0.3086,-0.3088,-0.309,-0.3097,-0.3024,-0.3093,-0.3092,-0.3092,-0.3092,-0.3092,0,-0.3383,-0.3365,-0.3356,-0.3335,-0.3328,-0.3299,-0.3279,-0.3276,-0.3272,-0.3253,-0.3243,-0.3235,-0.3225,-0.3195,-0.3182,-0.3186,-0.3171,-0.3184,-0.3184,-0.3181,-0.3113,-0.311,-0.3196,-0.3196,-0.3196,-0.3196,-0.3196,-0.3196,-0.3423,-0.3429,-0.3408,-0.3406,-0.3387,-0.3382,-0.3374,-0.3361,-0.3346,-0.3338,-0.333,-0.331,-0.3287,-0.3273,-0.3264,-0.3255,-0.3253,-0.3271,-0.3258,-0.3196,-0.3186,-0.3176,-0.3173,-0.3271,-0.3271,-0.3327,-0.3327,-0.3328]}]]